Home   Weather   Binghamton   Past weeks

Flag for USA Past Weather in Binghamton, New York, USA — Yesterday and Last 2 Weeks

Now
32 °F

Ice fog.


Feels Like: 22 °F
Forecast: 29 / 34 °F
Wind: 15 mph from North

Location: Binghamton Regional Airport

Current Time: Jan 24, 2017 at 12:24:19 pm

Latest Report: Jan 24, 2017 at 12:01 pm


Visibility: 2 mi

Pressure: 29.47 "Hg

Humidity: 92%

Dew Point: 30 °F

Location of BinghamtonLocation

Past Weather in Binghamton — Graph

°F

Binghamton Temperature Yesterday

Maximum temperature yesterday: 43 °F (at 12:53 am)
Minimum temperature yesterday: 30 °F (at 6:53 pm)
Average temperature yesterday: 34 °F

High & Low Weather Summary for the Past Weeks

 TemperatureHumidityPressure
High56 °F (Jan 22, 3:53 pm)100% (Jan 12, 2:07 pm)30.71 "Hg (Jan 12, 2:07 pm)
Low10 °F (Jan 10, 12:53 am)48% (Jan 16, 1:53 pm)29.48 "Hg (Jan 24, 11:34 am)
Average32 °F88%30.03 "Hg
* Reported Jan 9 11:53 am — Jan 24 11:34 am, Binghamton, Weather by CustomWeather, © 2017

Note: Actual official high and low records may vary slightly from our data, if they occured in-between our weather recording intervals... More about our weather records

Advertising

Binghamton Weather History for the Previous 24 Hours

Scroll right to see more
 ConditionsComfort  
Time TempWeatherWind HumidityBarometerVisibility
11:34 am
Tue, Jan 24
31 °FIce fog.13 mph96%29.48 "Hg3 mi
11:05 am31 °FIce fog.10 mph96%29.49 "Hg6 mi
10:53 am31 °FIce fog.10 mph96%29.54 "Hg6 mi
10:23 am31 °FLight snow. More clouds than sun.10 mph96%29.50 "Hg7 mi
9:53 am30 °FLight snow. Ice fog.12 mph96%29.55 "Hg4 mi
9:42 am30 °FLight snow. Ice fog.13 mph96%29.50 "Hg3 mi
9:27 am30 °FLight snow. Ice fog.12 mph96%29.50 "Hg2 mi
8:53 am29 °FLight snow. Ice fog.12 mph100%29.54 "Hg3 mi
8:15 am29 °FLight snow. Ice fog.12 mph96%29.50 "Hg4 mi
8:00 am29 °FLight snow. Ice fog.15 mph96%29.50 "Hg2 mi
7:09 am30 °FLight snow. Ice fog.14 mph96%29.51 "Hg1 mi
6:53 am30 °FLight snow. Ice fog.12 mph96%29.56 "Hg1 mi
6:34 am30 °FLight snow. Ice fog.13 mph96%29.51 "Hg1 mi
6:10 am30 °FLight snow. Ice fog.13 mph96%29.51 "Hg1 mi
5:53 am30 °FLight snow. Ice fog.14 mph96%29.55 "Hg1 mi
4:53 am30 °FSnow. Ice fog.13 mph96%29.56 "Hg1 mi
4:33 am30 °FLight snow. Ice fog.14 mph96%29.51 "Hg1 mi
4:20 am31 °FLight snow. Ice fog.13 mph92%29.51 "Hg1 mi
3:53 am31 °FLight snow. Ice fog.14 mph96%29.55 "Hg1 mi
3:38 am31 °FLight snow. Ice fog.12 mph96%29.51 "Hg1 mi
3:22 am31 °FLight snow. Ice fog.12 mph96%29.51 "Hg1 mi
2:59 am31 °FLight snow. Ice fog.13 mph96%29.51 "Hg2 mi
2:33 am31 °FLight snow. Ice fog.8 mph96%29.52 "Hg4 mi
2:17 am31 °FLight freezing rain. Ice fog.10 mph96%29.52 "Hg3 mi
2:05 am31 °FFreezing rain. Ice fog.10 mph96%29.52 "Hg4 mi
1:33 am31 °FFreezing rain. Ice fog.13 mph96%29.53 "Hg3 mi
12:53 am31 °FFreezing rain. Ice fog.13 mph96%29.58 "Hg4 mi
12:44 am31 °FFreezing rain. Ice fog.10 mph96%29.55 "Hg5 mi
12:10 am31 °FLight freezing rain. Ice fog.12 mph96%29.56 "Hg6 mi
11:53 pm
Mon, Jan 23
31 °FFreezing rain. Ice fog.13 mph96%29.61 "Hg5 mi
11:34 pm31 °FFreezing rain. Ice fog.12 mph96%29.58 "Hg5 mi
11:00 pm31 °FFreezing rain. Ice fog.12 mph92%29.59 "Hg5 mi
10:21 pm30 °FFreezing rain. Ice fog.9 mph96%29.61 "Hg5 mi
9:53 pm30 °FLight freezing rain. Mostly cloudy.10 mph96%29.66 "Hg7 mi
8:53 pm30 °FFreezing rain. Ice fog.13 mph96%29.67 "Hg4 mi
8:40 pm30 °FFreezing rain. Ice fog.15 mph92%29.65 "Hg5 mi
8:20 pm30 °FFreezing rain. Ice fog.14 mph92%29.66 "Hg5 mi
7:53 pm30 °FLight freezing rain. Ice fog.13 mph89%29.70 "Hg6 mi
6:53 pm30 °FLight freezing rain. Overcast.12 mph85%29.72 "Hg7 mi
6:26 pm31 °FLight freezing rain. Overcast.14 mph82%29.68 "Hg6 mi
5:53 pm31 °FLight snow. Overcast.16 mph76%29.72 "Hg10 mi
4:53 pm32 °FOvercast.12 mph69%29.70 "Hg10 mi
3:53 pm32 °FOvercast.17 mph73%29.70 "Hg10 mi
2:53 pm33 °FMostly cloudy.12 mph75%29.70 "Hg10 mi
1:53 pm35 °FMostly cloudy.12 mph75%29.70 "Hg10 mi
12:53 pm37 °FOvercast.12 mph76%29.72 "Hg10 mi
12:27 pm37 °FMore clouds than sun.12 mph76%29.70 "Hg10 mi
Weather by CustomWeather, © 2017

See weather overviewHow to use our weather pages